Location: Recife
(8.0585°S, 34.8848°W)
Time: 10:27:59
(UTC-03:00)

Transit 2A Rocket - Pass Details

Date: 19 April 2026
Orbit: 587 x 895 km, 66.7° (Epoch: 14 May)

Event Time Altitude Azimuth Distance (km) Brightness Sun altitude
Rises 23:43:22 0° 229° (SW) 3,464 - -83.0°
Reaches altitude 10° 23:46:38 10° 247° (WSW) 2,548 - -82.3°
Maximum altitude 23:50:32 18° 288° (WNW) 2,035 - -81.4°
Drops below altitude 10° 23:54:28 10° 330° (NNW) 2,551 - -80.5°
Sets 23:57:46 0° 348° (NNW) 3,470 - -79.7°
